TimeCDT,TemperatureF,Dew PointF,Humidity,Sea Level PressureIn,VisibilityMPH,Wind Direction,Wind SpeedMPH,Gust SpeedMPH,PrecipitationIn,Events,Conditions,WindDirDegrees,DateUTC
12:14 AM,61.3,54.0,77,30.05,10.0,Calm,Calm,-,N/A,,Clear,0,2013-06-19 05:14:00
12:34 AM,60.8,53.8,78,30.05,10.0,Calm,Calm,-,N/A,,Clear,0,2013-06-19 05:34:00
12:55 AM,61.0,54.1,78,30.06,10.0,Calm,Calm,-,N/A,,Scattered Clouds,0,2013-06-19 05:55:00
1:14 AM,62.1,54.1,75,30.06,10.0,Calm,Calm,-,N/A,,Scattered Clouds,0,2013-06-19 06:14:00
1:34 AM,62.1,54.1,75,30.05,10.0,Calm,Calm,-,N/A,,Scattered Clouds,0,2013-06-19 06:34:00
1:55 AM,61.9,54.1,76,30.05,10.0,Calm,Calm,-,N/A,,Clear,0,2013-06-19 06:55:00
2:14 AM,61.2,53.6,76,30.04,10.0,Calm,Calm,-,N/A,,Clear,0,2013-06-19 07:14:00
2:34 AM,62.1,53.8,74,30.04,10.0,Calm,Calm,-,N/A,,Clear,0,2013-06-19 07:34:00
2:55 AM,61.3,54.0,77,30.04,10.0,SE,3.5,-,N/A,,Clear,130,2013-06-19 07:55:00
3:14 AM,62.1,54.5,76,30.03,10.0,SE,3.5,-,N/A,,Clear,130,2013-06-19 08:14:00
3:34 AM,60.8,53.8,78,30.03,10.0,SE,3.5,-,N/A,,Clear,140,2013-06-19 08:34:00
3:55 AM,61.2,54.1,78,30.04,10.0,Calm,Calm,-,N/A,,Clear,0,2013-06-19 08:55:00
4:14 AM,59.9,53.6,80,30.03,10.0,Calm,Calm,-,N/A,,Clear,0,2013-06-19 09:14:00
4:34 AM,58.6,53.1,82,30.03,10.0,Calm,Calm,-,N/A,,Clear,0,2013-06-19 09:34:00
4:55 AM,58.6,52.9,81,30.04,10.0,Calm,Calm,-,N/A,,Clear,0,2013-06-19 09:55:00
5:14 AM,57.6,52.0,82,30.04,10.0,Calm,Calm,-,N/A,,Clear,0,2013-06-19 10:14:00
5:34 AM,58.5,52.7,81,30.06,10.0,Calm,Calm,-,N/A,,Clear,0,2013-06-19 10:34:00
5:55 AM,59.0,53.1,81,30.06,10.0,Calm,Calm,-,N/A,,Scattered Clouds,0,2013-06-19 10:55:00
6:14 AM,60.3,54.1,80,30.06,10.0,Calm,Calm,-,N/A,,Mostly Cloudy,0,2013-06-19 11:14:00
6:34 AM,62.1,55.0,78,30.06,10.0,Calm,Calm,-,N/A,,Scattered Clouds,0,2013-06-19 11:34:00
6:55 AM,62.8,55.0,76,30.06,10.0,SE,4.6,-,N/A,,Clear,130,2013-06-19 11:55:00
7:14 AM,63.9,55.6,74,30.06,10.0,SSE,4.6,-,N/A,,Clear,160,2013-06-19 12:14:00
7:34 AM,65.5,56.1,72,30.06,10.0,SSE,8.1,-,N/A,,Clear,150,2013-06-19 12:34:00
7:55 AM,66.2,56.5,71,30.06,10.0,South,5.8,-,N/A,,Clear,170,2013-06-19 12:55:00
8:14 AM,67.5,56.8,69,30.06,10.0,South,3.5,-,N/A,,Clear,170,2013-06-19 13:14:00
8:34 AM,69.1,57.4,66,30.05,10.0,SSE,5.8,-,N/A,,Clear,160,2013-06-19 13:34:00
8:54 AM,70.0,57.4,64,30.05,10.0,South,6.9,-,N/A,,Clear,180,2013-06-19 13:54:00
9:14 AM,71.1,57.4,62,30.05,10.0,South,8.1,-,N/A,,Scattered Clouds,170,2013-06-19 14:14:00
9:34 AM,70.5,57.4,63,30.06,10.0,South,6.9,-,N/A,,Mostly Cloudy,180,2013-06-19 14:34:00
9:54 AM,70.7,57.4,63,30.05,10.0,South,8.1,-,N/A,,Overcast,170,2013-06-19 14:54:00
10:15 AM,70.9,57.9,63,30.05,10.0,SE,5.8,-,N/A,,Overcast,140,2013-06-19 15:15:00
10:34 AM,71.2,57.9,63,30.04,10.0,SSE,6.9,-,N/A,,Overcast,150,2013-06-19 15:34:00
10:54 AM,73.6,58.8,60,30.05,10.0,SE,4.6,-,N/A,,Mostly Cloudy,130,2013-06-19 15:54:00
11:15 AM,73.2,58.8,61,30.04,10.0,SSE,4.6,-,N/A,,Scattered Clouds,150,2013-06-19 16:15:00
11:34 AM,74.5,59.0,58,30.04,10.0,ESE,6.9,-,N/A,,Scattered Clouds,110,2013-06-19 16:34:00
11:54 AM,76.1,59.5,56,30.03,10.0,ESE,3.5,-,N/A,,Scattered Clouds,110,2013-06-19 16:54:00
12:15 PM,76.3,59.2,55,30.03,10.0,SSE,8.1,-,N/A,,Clear,150,2013-06-19 17:15:00
12:34 PM,76.6,59.7,56,30.02,10.0,East,6.9,-,N/A,,Clear,100,2013-06-19 17:34:00
12:54 PM,77.5,59.4,53,30.02,10.0,ESE,5.8,-,N/A,,Scattered Clouds,110,2013-06-19 17:54:00
1:15 PM,78.4,57.9,49,30.02,10.0,SSE,4.6,-,N/A,,Clear,150,2013-06-19 18:15:00
1:34 PM,78.6,59.5,52,30.01,10.0,SE,4.6,-,N/A,,Clear,140,2013-06-19 18:34:00
1:54 PM,79.7,59.4,50,30.01,10.0,SE,6.9,-,N/A,,Clear,130,2013-06-19 18:54:00
2:15 PM,79.7,58.1,47,30.00,10.0,ESE,9.2,-,N/A,,Clear,110,2013-06-19 19:15:00
2:34 PM,80.6,58.1,46,30.00,10.0,SE,4.6,-,N/A,,Scattered Clouds,140,2013-06-19 19:34:00
2:54 PM,81.5,58.6,46,29.99,10.0,SE,11.5,17.3,N/A,,Clear,130,2013-06-19 19:54:00
3:15 PM,81.3,58.3,45,29.99,10.0,ESE,6.9,-,N/A,,Clear,120,2013-06-19 20:15:00
3:34 PM,81.9,57.6,43,29.98,10.0,SE,8.1,-,N/A,,Clear,130,2013-06-19 20:34:00
3:54 PM,81.5,57.2,43,29.98,10.0,SE,9.2,-,N/A,,Clear,130,2013-06-19 20:54:00
4:14 PM,82.4,57.0,42,29.98,10.0,SE,9.2,16.1,N/A,,Scattered Clouds,130,2013-06-19 21:14:00
4:34 PM,82.9,56.8,41,29.97,10.0,SE,9.2,-,N/A,,Scattered Clouds,140,2013-06-19 21:34:00
4:54 PM,82.4,56.1,40,29.96,10.0,SE,10.4,17.3,N/A,,Clear,140,2013-06-19 21:54:00
5:14 PM,82.9,55.9,39,29.96,10.0,SE,8.1,-,N/A,,Clear,140,2013-06-19 22:14:00
5:34 PM,83.3,55.8,39,29.96,10.0,SE,8.1,-,N/A,,Clear,140,2013-06-19 22:34:00
5:55 PM,82.9,55.8,39,29.96,10.0,SE,11.5,17.3,N/A,,Clear,130,2013-06-19 22:55:00
6:14 PM,82.4,54.9,39,29.95,10.0,ESE,9.2,-,N/A,,Clear,120,2013-06-19 23:14:00
6:34 PM,81.5,55.2,40,29.95,10.0,ESE,9.2,-,N/A,,Clear,120,2013-06-19 23:34:00
6:55 PM,81.5,55.0,40,29.95,10.0,ESE,6.9,-,N/A,,Clear,120,2013-06-19 23:55:00
7:14 PM,81.5,55.4,41,29.95,10.0,ESE,5.8,-,N/A,,Clear,110,2013-06-20 00:14:00
7:34 PM,80.6,55.8,42,29.95,10.0,East,5.8,-,N/A,,Clear,100,2013-06-20 00:34:00
7:55 PM,79.7,56.1,44,29.95,10.0,ESE,5.8,-,N/A,,Mostly Cloudy,110,2013-06-20 00:55:00
8:14 PM,79.7,56.5,45,29.95,10.0,East,5.8,-,N/A,,Overcast,100,2013-06-20 01:14:00
8:34 PM,78.1,56.5,47,29.95,10.0,East,4.6,-,N/A,,Mostly Cloudy,100,2013-06-20 01:34:00
8:55 PM,77.0,55.8,48,29.95,10.0,ESE,5.8,-,N/A,,Scattered Clouds,120,2013-06-20 01:55:00
9:14 PM,77.0,55.4,47,29.95,10.0,ESE,4.6,-,N/A,,Clear,110,2013-06-20 02:14:00
9:34 PM,76.1,54.9,48,29.95,10.0,East,6.9,-,N/A,,Clear,100,2013-06-20 02:34:00
9:55 PM,76.1,55.6,49,29.96,10.0,ESE,5.8,-,N/A,,Clear,110,2013-06-20 02:55:00
10:14 PM,73.4,55.4,53,29.97,10.0,East,4.6,-,N/A,,Clear,100,2013-06-20 03:14:00
10:34 PM,73.4,55.8,54,29.98,10.0,East,5.8,-,N/A,,Clear,100,2013-06-20 03:34:00
10:55 PM,73.2,56.1,55,29.97,10.0,ESE,5.8,-,N/A,,Clear,120,2013-06-20 03:55:00
11:14 PM,72.5,56.3,57,29.97,10.0,ESE,4.6,-,N/A,,Clear,120,2013-06-20 04:14:00
11:34 PM,72.5,57.2,59,29.98,10.0,ESE,4.6,-,N/A,,Clear,110,2013-06-20 04:34:00
11:55 PM,72.0,56.7,58,29.97,10.0,ESE,5.8,-,N/A,,Clear,120,2013-06-20 04:55:00